Location: Powder Track
(41.8531°N, 72.3584°W)
Time: 23:59:00
(UTC+00:00)

Vanguard 1 Rocket - Pass Details

Date: 11 August 2021
Orbit: 650 x 4226 km, 34.3° (Epoch: 19 September)

Event Time Altitude Azimuth Distance (km) Brightness Sun altitude
Rises 18:55:58 0° 282° (WNW) 6,896 12.2 52.5°
Reaches altitude 10° 19:02:45 10° 269° (W) 5,143 11.9 51.5°
Maximum altitude 19:11:23 20° 229° (SW) 3,331 11.5 50.2°
Drops below altitude 10° 19:17:16 10° 185° (S) 3,312 10.8 49.2°
Sets 19:20:26 0° 168° (SSE) 3,879 10.8 48.7°
